Hourly Data Report for October 07, 2015

All times are specified in Local Standard Time (LST). Add 1 hour to adjust for Daylight Saving Time where and when it is observed.

TORONTO INTL A
ONTARIO

43°40'36.000" N
79°37'50.000" W
173.40 m
6158731
71624
YYZ

Download Data

Hourly Data (October 2015)
Hourly Data Report for October 7, 2015
Temp Definition
°C
Dew Point Temp Definition
°C
Rel Hum Definition
%
Wind Dir Definition
10's deg

Wind Spd Definition
km/h
Visibility Definition
km
Stn Press Definition
kPa
Hmdx Definition


Wind Chill Definition


Weather Definition


TIME
00:00 Legend Double Dagger 10.6 8.4 86 25 7 24.1 99.63     LegendNANA
01:00 Legend Double Dagger 10.2 8.0 86 26 7 24.1 99.62     Mostly Cloudy
02:00 Legend Double Dagger 11.4 9.5 88 28 7 24.1 99.60     LegendNANA
03:00 Legend Double Dagger 11.3 9.4 88 27 5 24.1 99.60     LegendNANA
04:00 Legend Double Dagger 11.6 9.7 88 28 8 24.1 99.58     Mostly Cloudy
05:00 Legend Double Dagger 11.8 10.1 89 24 7 24.1 99.59     LegendNANA
06:00 Legend Double Dagger 12.1 10.4 89 26 10 24.1 99.60     LegendNANA
07:00 Legend Double Dagger 12.5 10.6 88 26 12 24.1 99.63     Mostly Cloudy
08:00 Legend Double Dagger 13.3 10.9 85 29 12 24.1 99.66     LegendNANA
09:00 Legend Double Dagger 15.5 11.7 78 27 12 24.1 99.66     LegendNANA
10:00 Legend Double Dagger 17.2 12.0 71 26 9 24.1 99.67     Mostly Cloudy
11:00 Legend Double Dagger 18.2 12.3 68 27 10 24.1 99.64     LegendNANA
12:00 Legend Double Dagger 20.4 12.5 60 27 8 24.1 99.61     LegendNANA
13:00 Legend Double Dagger 20.3 11.9 58 29 21 24.1 99.59     Mostly Cloudy
14:00 Legend Double Dagger 20.2 9.9 51 31 24 24.1 99.55     LegendNANA
15:00 Legend Double Dagger 21.4 10.7 50 31 23 24.1 99.55     LegendNANA
16:00 Legend Double Dagger 20.6 9.7 49 33 29 24.1 99.59     Mostly Cloudy
17:00 Legend Double Dagger 18.7 10.4 58 36 22 24.1 99.64     LegendNANA
18:00 Legend Double Dagger 15.5 9.9 69 35 21 24.1 99.74     LegendNANA
19:00 Legend Double Dagger 13.9 8.2 68 35 22 24.1 99.81     Clear
20:00 Legend Double Dagger 12.9 7.4 69 34 18 24.1 99.89     LegendNANA
21:00 Legend Double Dagger 12.2 8.9 80 33 19 24.1 99.94     LegendNANA
22:00 Legend Double Dagger 11.4 8.3 81 33 12 24.1 99.97     Clear
23:00 Legend Double Dagger 11.0 7.9 81 33 13 24.1 100.00     LegendNANA

Notes on Data Quality.

Legend

  • E = Estimated
  • M = Missing
  • NA = Not Available
  • ‡ = Partner data that is not subject to review by the National Climate Archives
Date modified: